Weather History for KRQB - October, 2014

Change the Weather History Date:

Thursday, October 16, 2014

  Actual Average Record
Temperature  
Mean Temperature 54 °F -  
Max Temperature 58 °F 57 °F 73 °F (1998)
Min Temperature 50 °F 36 °F 22 °F (1977)
Degree Days  
Heating Degree Days 11    
Growing Degree Days 4 (Base 50)    
Moisture  
Dew Point 54 °F    
Average Humidity 99    
Maximum Humidity 100    
Minimum Humidity 94    
Precipitation  
Precipitation 0.00 in - - ()
Sea Level Pressure  
Sea Level Pressure 29.74 in    
Wind  
Wind Speed 3 mph (WSW)    
Max Wind Speed 10 mph    
Max Gust Speed -    
Visibility 7 miles    
Events      
Averages and records for this station are not official NWS values.
T = Trace of Precipitation, MM = Missing Value Source: NWS Daily Summary

Daily Weather History Graph

Daily Weather History Graph

Search for Another Location

Airport or City:

Trip Planner

Search our weather history database for the weather conditions in past years. The results will help you decide how hot, cold, wet, or windy it might be!

Date:

Astronomy

Oct. 16, 2014 Rise Set
Actual Time 7:57 AM EDT 6:56 PM EDT
Civil Twilight 7:28 AM EDT 7:25 PM EDT
Nautical Twilight 6:55 AM EDT 7:59 PM EDT
Astronomical Twilight 6:21 AM EDT 8:32 PM EDT
Moon 12:55 AM EDT (10/16) 3:18 PM EDT (10/16)
Length of Visible Light 11h 57m
Length of Day
10h 59m
Last Quarter, 42% of the Moon is Illuminated
Oct 16
Last Quarter
Oct 23
New
Oct 30
First Quarter
Nov 6
Full
Nov 14
Last Quarter

Hourly Weather History & Observations

Time (EDT) Temp. Dew Point Humidity Pressure Visibility Wind Dir Wind Speed Gust Speed Precip Events Conditions
12:15 AM 54.7 °F 54.7 °F 100% 29.81 in 7.0 mi Calm Calm - N/A   Overcast
12:34 AM 54.5 °F 54.5 °F 100% 29.80 in 7.0 mi NNW 3.5 mph - N/A   Mostly Cloudy
12:55 AM 54.5 °F 54.5 °F 100% 29.80 in 7.0 mi Calm Calm - N/A   Mostly Cloudy
1:14 AM 54.0 °F 54.0 °F 100% 29.79 in 5.0 mi Calm Calm - N/A   Overcast
1:34 AM 54.3 °F 54.3 °F 100% 29.79 in 5.0 mi Calm Calm - N/A   Overcast
1:55 AM 54.5 °F 54.5 °F 100% 29.79 in 5.0 mi NNE 3.5 mph - N/A   Overcast
2:14 AM 54.7 °F 54.7 °F 100% 29.79 in 5.0 mi Calm Calm - N/A   Overcast
2:34 AM 54.9 °F 54.9 °F 100% 29.78 in 5.0 mi Calm Calm - N/A   Overcast
2:55 AM 55.0 °F 55.0 °F 100% 29.78 in 5.0 mi Calm Calm - N/A   Overcast
3:14 AM 54.9 °F 54.9 °F 100% 29.78 in 4.0 mi NNE 5.8 mph - N/A   Overcast
3:34 AM 54.9 °F 54.9 °F 100% 29.78 in 4.0 mi NNE 4.6 mph - N/A   Overcast
3:55 AM 54.9 °F 54.9 °F 100% 29.77 in 4.0 mi NE 3.5 mph - N/A   Overcast
4:14 AM 54.9 °F 54.9 °F 100% 29.77 in 4.0 mi NE 3.5 mph - N/A   Overcast
4:35 AM 54.9 °F 54.9 °F 100% 29.76 in 5.0 mi Calm Calm - N/A   Overcast
4:55 AM 54.0 °F 54.0 °F 100% 29.76 in 2.0 mi East 3.5 mph - N/A   Overcast
5:14 AM 54.5 °F 54.5 °F 100% 29.77 in 4.0 mi East 4.6 mph - N/A   Overcast
5:35 AM 54.3 °F 54.3 °F 100% 29.77 in 4.0 mi East 4.6 mph - N/A   Overcast
5:55 AM 54.3 °F 54.3 °F 100% 29.77 in 4.0 mi Calm Calm - N/A   Overcast
6:14 AM 54.5 °F 54.5 °F 100% 29.78 in 4.0 mi Calm Calm - N/A   Overcast
6:35 AM 54.5 °F 54.5 °F 100% 29.78 in 5.0 mi Calm Calm - N/A   Overcast
6:55 AM 54.5 °F 54.5 °F 100% 29.78 in 4.0 mi Calm Calm - N/A   Overcast
7:14 AM 54.1 °F 54.1 °F 100% 29.79 in 5.0 mi Calm Calm - N/A   Overcast
7:35 AM 54.1 °F 54.1 °F 100% 29.79 in 7.0 mi ESE 4.6 mph - N/A   Overcast
7:55 AM 54.0 °F 54.0 °F 100% 29.79 in 5.0 mi ESE 4.6 mph - N/A   Overcast
8:14 AM 54.0 °F 54.0 °F 100% 29.78 in 5.0 mi ESE 5.8 mph - N/A   Overcast
8:35 AM 54.1 °F 54.1 °F 100% 29.79 in 5.0 mi Calm Calm - N/A   Overcast
8:55 AM 54.5 °F 54.5 °F 100% 29.79 in 5.0 mi Calm Calm - N/A   Overcast
9:14 AM 54.7 °F 54.7 °F 100% 29.79 in 5.0 mi Calm Calm - N/A   Overcast
9:35 AM 54.9 °F 54.9 °F 100% 29.79 in 7.0 mi Calm Calm - N/A   Overcast
9:55 AM 55.0 °F 55.0 °F 100% 29.79 in 5.0 mi Calm Calm - N/A   Overcast
10:14 AM 55.4 °F 55.4 °F 100% 29.79 in 7.0 mi West 5.8 mph - N/A   Overcast
10:35 AM 55.6 °F 55.6 °F 100% 29.78 in 7.0 mi WSW 4.6 mph - N/A   Overcast
10:55 AM 56.3 °F 56.3 °F 100% 29.78 in 7.0 mi SW 3.5 mph - N/A   Overcast
11:14 AM 56.3 °F 56.1 °F 99% 29.78 in 10.0 mi WSW 3.5 mph - N/A   Overcast
11:35 AM 56.7 °F 56.3 °F 99% 29.78 in 10.0 mi SSW 8.1 mph - N/A   Overcast
11:55 AM 57.2 °F 56.3 °F 97% 29.78 in 10.0 mi WSW 3.5 mph - N/A   Overcast
12:14 PM 56.7 °F 56.5 °F 99% 29.77 in 5.0 mi WSW 6.9 mph - N/A   Overcast
12:35 PM 56.8 °F 56.8 °F 100% 29.77 in 10.0 mi West 5.8 mph - N/A   Overcast
12:55 PM 57.6 °F 56.7 °F 97% 29.77 in 10.0 mi Calm Calm - N/A   Overcast
1:14 PM 58.1 °F 56.7 °F 95% 29.76 in 10.0 mi West 8.1 mph - N/A   Overcast
1:35 PM 57.6 °F 56.8 °F 97% 29.74 in 10.0 mi WSW 5.8 mph - N/A   Overcast
1:55 PM 57.2 °F 56.5 °F 97% 29.74 in 10.0 mi West 5.8 mph - N/A   Overcast
2:14 PM 57.2 °F 56.8 °F 99% 29.74 in 10.0 mi West 4.6 mph - N/A   Overcast
2:35 PM 56.8 °F 56.3 °F 98% 29.73 in 10.0 mi West 8.1 mph - N/A   Overcast
2:55 PM 57.0 °F 56.7 °F 99% 29.72 in 10.0 mi WSW 6.9 mph - N/A   Overcast
3:14 PM 57.2 °F 57.0 °F 99% 29.72 in 10.0 mi West 8.1 mph - N/A   Overcast
3:35 PM 56.7 °F 56.5 °F 99% 29.72 in 10.0 mi West 6.9 mph - N/A   Overcast
3:54 PM 57.4 °F 56.5 °F 97% 29.72 in 10.0 mi WSW 4.6 mph - N/A   Overcast
4:14 PM 57.2 °F 55.6 °F 94% 29.72 in 10.0 mi West 10.4 mph - N/A   Overcast
4:35 PM 57.2 °F 55.8 °F 95% 29.72 in 10.0 mi West 6.9 mph - N/A   Overcast
4:54 PM 57.4 °F 55.6 °F 94% 29.71 in 10.0 mi West 6.9 mph - N/A   Overcast
5:14 PM 57.0 °F 55.4 °F 94% 29.70 in 10.0 mi West 8.1 mph - N/A   Overcast
5:35 PM 56.3 °F 54.9 °F 95% 29.70 in 10.0 mi WSW 8.1 mph - N/A   Overcast
5:54 PM 54.7 °F 54.5 °F 99% 29.70 in 10.0 mi West 8.1 mph - N/A   Overcast
6:14 PM 54.1 °F 54.1 °F 100% 29.70 in 10.0 mi WSW 5.8 mph - N/A   Overcast
6:35 PM 53.6 °F 53.6 °F 100% 29.70 in 10.0 mi WSW 8.1 mph - N/A   Overcast
6:54 PM 53.1 °F 53.1 °F 100% 29.70 in 10.0 mi WSW 9.2 mph - N/A   Overcast
7:14 PM 52.7 °F 52.7 °F 100% 29.70 in 10.0 mi SW 6.9 mph - N/A   Overcast
7:35 PM 52.2 °F 52.2 °F 100% 29.70 in 10.0 mi SW 5.8 mph - N/A   Overcast
7:54 PM 51.8 °F 51.8 °F 100% 29.70 in 7.0 mi SW 4.6 mph - N/A   Overcast
8:14 PM 51.6 °F 51.6 °F 100% 29.70 in 5.0 mi SW 3.5 mph - N/A   Drizzle
8:35 PM 51.4 °F 51.4 °F 100% 29.70 in 5.0 mi WSW 4.6 mph - N/A   Drizzle
8:54 PM 51.1 °F 51.1 °F 100% 29.70 in 3.0 mi Calm Calm - N/A   Overcast
9:15 PM 51.1 °F 51.1 °F 100% 29.69 in 3.0 mi Calm Calm - N/A   Overcast
9:35 PM 51.1 °F 51.1 °F 100% 29.69 in 2.5 mi Calm Calm - N/A   Overcast
9:54 PM 50.9 °F 50.9 °F 100% 29.68 in 3.0 mi SSW 3.5 mph - N/A   Overcast
10:15 PM 51.1 °F 51.1 °F 100% 29.67 in 2.5 mi SW 3.5 mph - N/A   Overcast
10:35 PM 51.1 °F 51.1 °F 100% 29.66 in 4.0 mi SW 4.6 mph - N/A   Overcast
10:54 PM 51.1 °F 51.1 °F 100% 29.65 in 3.0 mi Calm Calm - N/A   Overcast
11:15 PM 51.1 °F 51.1 °F 100% 29.65 in 7.0 mi Calm Calm - N/A   Overcast
11:35 PM 51.3 °F 51.3 °F 100% 29.65 in 7.0 mi SSW 3.5 mph - N/A   Overcast
11:54 PM 51.4 °F 51.4 °F 100% 29.65 in 4.0 mi WSW 4.6 mph - N/A   Overcast